| time (UTC) | temp C | wind direction | speed KPH | gust KPH | rain 1hr cm | rain 24hr cm | rain mn cm | humidity % | barometer mb |
| 20260901114559 | 13 | 103 | 0.0 | 1.6 | 0.00 | 0.00 | 0.00 | 67 | 1007.5 |
| 20260901113051 | 13 | 103 | 0.0 | 1.6 | 0.00 | 0.00 | 0.00 | 66 | 1007.5 |
| 20260901111549 | 13 | 103 | 0.0 | 0.0 | 0.00 | 0.00 | 0.00 | 67 | 1007.6 |
| 20260901110053 | 14 | 103 | 0.0 | 1.6 | 0.00 | 0.00 | 0.00 | 63 | 1007.5 |
| 20260901104546 | 13 | 103 | 0.0 | 3.2 | 0.00 | 0.00 | 0.00 | 63 | 1007.6 |
| 20260901103044 | 14 | 115 | 0.0 | 1.6 | 0.00 | 0.00 | 0.00 | 64 | 1007.7 |
| 20260901101545 | 14 | 115 | 0.0 | 4.8 | 0.00 | 0.00 | 0.00 | 61 | 1007.8 |
| 20260901100046 | 14 | 103 | 0.0 | 3.2 | 0.00 | 0.00 | 0.00 | 63 | 1007.8 |
| 20260901094542 | 14 | 117 | 0.0 | 0.0 | 0.00 | 0.00 | 0.00 | 63 | 1007.9 |
| 20260901093041 | 14 | 117 | 0.0 | 1.6 | 0.00 | 0.00 | 0.00 | 64 | 1008.0 |
| 20260901091548 | 14 | 117 | 0.0 | 1.6 | 0.00 | 0.00 | 0.00 | 63 | 1008.0 |
| 20260901090039 | 14 | 117 | 0.0 | 1.6 | 0.00 | 0.00 | 0.00 | 62 | 1007.9 |
| 20260901084538 | 14 | 117 | 0.0 | 0.0 | 0.00 | 0.00 | 0.00 | 62 | 1007.9 |
| 20260901083036 | 14 | 117 | 0.0 | 1.6 | 0.00 | 0.00 | 0.00 | 63 | 1008.0 |
| 20260901081540 | 13 | 84 | 0.0 | 0.0 | 0.00 | 0.00 | 0.00 | 65 | 1008.1 |
| 20260901080034 | 14 | 84 | 0.0 | 1.6 | 0.00 | 0.00 | 0.00 | 64 | 1008.0 |
| 20260901074532 | 14 | 84 | 0.0 | 3.2 | 0.00 | 0.00 | 0.00 | 64 | 1008.2 |
| 20260901073030 | 14 | 112 | 0.0 | 0.0 | 0.00 | 0.00 | 0.00 | 65 | 1008.2 |
| 20260901071527 | 15 | 112 | 0.0 | 0.0 | 0.00 | 0.00 | 0.00 | 61 | 1008.2 |
| 20260901070022 | 16 | 111 | 0.0 | 0.0 | 0.00 | 0.00 | 0.00 | 58 | 1008.4 |
| 20260901064524 | 16 | 111 | 0.0 | 1.6 | 0.00 | 0.00 | 0.00 | 56 | 1008.6 |
| 20260901063029 | 16 | 111 | 0.0 | 1.6 | 0.00 | 0.00 | 0.00 | 57 | 1008.7 |
| 20260901061520 | 16 | 110 | 0.0 | 3.2 | 0.00 | 0.00 | 0.00 | 57 | 1008.5 |
| 20260901060019 | 17 | 110 | 0.0 | 1.6 | 0.00 | 0.00 | 0.00 | 56 | 1008.6 |
| 20260901054530 | 17 | 110 | 0.0 | 0.0 | 0.00 | 0.00 | 0.00 | 56 | 1008.5 |
| 20260901053019 | 17 | 110 | 0.0 | 0.0 | 0.00 | 0.00 | 0.00 | 55 | 1008.7 |
| 20260901051517 | 17 | 110 | 0.0 | 3.2 | 0.00 | 0.00 | 0.00 | 56 | 1008.7 |
| 20260901050017 | 17 | 58 | 0.0 | 1.6 | 0.00 | 0.00 | 0.00 | 58 | 1008.8 |
| 20260901044516 | 17 | 58 | 0.0 | 0.0 | 0.00 | 0.00 | 0.00 | 60 | 1008.9 |
| 20260901043019 | 18 | 58 | 0.0 | 1.6 | 0.00 | 0.00 | 0.00 | 58 | 1008.9 |
| 20260901041516 | 20 | 98 | 0.0 | 1.6 | 0.00 | 0.00 | 0.00 | 55 | 1008.7 |
| 20260901040014 | 21 | 98 | 0.0 | 1.6 | 0.00 | 0.00 | 0.00 | 51 | 1008.6 |
| 20260901034521 | 21 | 98 | 0.0 | 1.6 | 0.00 | 0.00 | 0.00 | 50 | 1008.5 |
| 20260901033016 | 21 | 98 | 0.0 | 3.2 | 0.00 | 0.00 | 0.00 | 49 | 1008.3 |
| 20260901031522 | 21 | 71 | 0.0 | 1.6 | 0.00 | 0.00 | 0.00 | 48 | 1008.2 |
| 20260901030011 | 22 | 71 | 0.0 | 0.0 | 0.00 | 0.00 | 0.00 | 43 | 1008.0 |
| 20260901024511 | 25 | 70 | 0.0 | 0.0 | 0.00 | 0.00 | 0.00 | 38 | 1008.0 |
| 20260901023018 | 26 | 71 | 0.0 | 0.0 | 0.00 | 0.00 | 0.00 | 33 | 1007.9 |
| 20260901021509 | 28 | 71 | 0.0 | 1.6 | 0.00 | 0.00 | 0.00 | 30 | 1007.8 |
| 20260901020008 | 28 | 70 | 0.0 | 3.2 | 0.00 | 0.00 | 0.00 | 29 | 1008.0 |
| 20260901014506 | 28 | 108 | 0.0 | 3.2 | 0.00 | 0.00 | 0.00 | 27 | 1008.1 |
| 20260901013009 | 28 | 333 | 0.0 | 4.8 | 0.00 | 0.00 | 0.00 | 28 | 1008.3 |
| 20260901011502 | 30 | 46 | 0.0 | 3.2 | 0.00 | 0.00 | 0.00 | 26 | 1008.5 |
| 20260901010059 | 29 | 153 | 0.0 | 1.6 | 0.00 | 0.00 | 0.00 | 27 | 1008.5 |
| 20260901004601 | 28 | 203 | 0.0 | 3.2 | 0.00 | 0.00 | 0.00 | 28 | 1008.8 |
| 20260901003055 | 28 | 61 | 3.2 | 8.0 | 0.00 | 0.00 | 0.00 | 27 | 1008.9 |
| 20260901001553 | 28 | 251 | 0.0 | 6.4 | 0.00 | 0.00 | 0.00 | 28 | 1009.1 |
| 20260901000051 | 28 | 57 | 3.2 | 8.0 | 0.00 | 0.00 | 0.00 | 27 | 1009.3 |
| 20260831234555 | 28 | 106 | 0.0 | 4.8 | 0.00 | 0.00 | 0.00 | 27 | 1009.4 |
| 20260831233046 | 27 | 288 | 3.2 | 6.4 | 0.00 | 0.00 | 0.00 | 27 | 1009.7 |
| 20260831231544 | 27 | 195 | 3.2 | 8.0 | 0.00 | 0.00 | 0.00 | 28 | 1009.9 |
| 20260831230044 | 27 | 325 | 3.2 | 12.9 | 0.00 | 0.00 | 0.00 | 28 | 1010.1 |
| 20260831224540 | 27 | 69 | 3.2 | 8.0 | 0.00 | 0.00 | 0.00 | 28 | 1010.2 |
| 20260831223042 | 27 | 163 | 3.2 | 8.0 | 0.00 | 0.00 | 0.00 | 31 | 1010.4 |
| 20260831221534 | 27 | 225 | 3.2 | 6.4 | 0.00 | 0.00 | 0.00 | 30 | 1010.6 |
| 20260831220031 | 27 | 100 | 1.6 | 6.4 | 0.00 | 0.00 | 0.00 | 30 | 1010.9 |
| 20260831214528 | 26 | 273 | 4.8 | 8.0 | 0.00 | 0.00 | 0.00 | 31 | 1011.2 |
| 20260831213027 | 26 | 12 | 1.6 | 8.0 | 0.00 | 0.00 | 0.00 | 32 | 1011.4 |
| 20260831211523 | 26 | 162 | 0.0 | 9.7 | 0.00 | 0.00 | 0.00 | 32 | 1011.5 |
| 20260831210021 | 26 | 224 | 1.6 | 6.4 | 0.00 | 0.00 | 0.00 | 32 | 1011.9 |
| 20260831204518 | 25 | 60 | 1.6 | 6.4 | 0.00 | 0.00 | 0.00 | 33 | 1012.0 |
| 20260831203014 | 25 | 290 | 0.0 | 8.0 | 0.00 | 0.00 | 0.00 | 34 | 1012.1 |
| 20260831201515 | 25 | 23 | 0.0 | 9.7 | 0.00 | 0.00 | 0.00 | 34 | 1012.5 |
| 20260831200007 | 25 | 307 | 1.6 | 11.3 | 0.00 | 0.00 | 0.00 | 35 | 1012.8 |
| 20260831194505 | 25 | 128 | 0.0 | 3.2 | 0.00 | 0.00 | 0.00 | 36 | 1013.0 |
| 20260831193002 | 24 | 328 | 1.6 | 8.0 | 0.00 | 0.00 | 0.00 | 35 | 1013.1 |
| 20260831191603 | 23 | 76 | 0.0 | 4.8 | 0.00 | 0.00 | 0.00 | 36 | 1013.5 |
| 20260831190055 | 23 | 288 | 1.6 | 4.8 | 0.00 | 0.00 | 0.00 | 39 | 1013.7 |
| 20260831184552 | 22 | 55 | 1.6 | 6.4 | 0.00 | 0.00 | 0.00 | 39 | 1014.0 |
| 20260831183049 | 22 | 159 | 0.0 | 4.8 | 0.00 | 0.00 | 0.00 | 40 | 1014.1 |
| 20260831181551 | 22 | 152 | 1.6 | 8.0 | 0.00 | 0.00 | 0.00 | 43 | 1014.4 |
| 20260831180042 | 21 | 87 | 3.2 | 6.4 | 0.00 | 0.00 | 0.00 | 44 | 1014.5 |
| 20260831174639 | 20 | 94 | 0.0 | 8.0 | 0.00 | 0.00 | 0.00 | 47 | 1014.6 |
| 20260831173035 | 20 | 108 | 3.2 | 8.0 | 0.00 | 0.00 | 0.00 | 48 | 1014.8 |
| 20260831171531 | 20 | 200 | 1.6 | 6.4 | 0.00 | 0.00 | 0.00 | 52 | 1015.0 |
| 20260831170036 | 18 | 153 | 0.0 | 6.4 | 0.00 | 0.00 | 0.00 | 55 | 1015.1 |
| 20260831164524 | 18 | 105 | 1.6 | 6.4 | 0.00 | 0.00 | 0.00 | 56 | 1015.2 |
| 20260831163021 | 17 | 115 | 0.0 | 3.2 | 0.00 | 0.00 | 0.00 | 59 | 1015.4 |
| 20260831161518 | 16 | 113 | 4.8 | 8.0 | 0.00 | 0.00 | 0.00 | 61 | 1015.5 |
| 20260831154511 | 15 | 110 | 3.2 | 9.7 | 0.00 | 0.00 | 0.00 | 64 | 1015.8 |
| 20260831153010 | 15 | 98 | 3.2 | 8.0 | 0.00 | 0.00 | 0.00 | 66 | 1015.8 |
| 20260831151505 | 14 | 129 | 0.0 | 6.4 | 0.00 | 0.00 | 0.00 | 68 | 1015.8 |
| 20260831150001 | 13 | 94 | 0.0 | 3.2 | 0.00 | 0.00 | 0.00 | 70 | 1015.8 |
| 20260831144600 | 12 | 89 | 0.0 | 3.2 | 0.00 | 0.00 | 0.00 | 72 | 1015.7 |
| 20260831143101 | 12 | 112 | 0.0 | 3.2 | 0.00 | 0.00 | 0.00 | 74 | 1015.7 |
| 20260831141609 | 10 | 91 | 0.0 | 1.6 | 0.00 | 0.00 | 0.00 | 77 | 1015.7 |
| 20260831140058 | 9 | 92 | 0.0 | 3.2 | 0.00 | 0.00 | 0.00 | 80 | 1015.7 |
| 20260831134557 | 9 | 109 | 0.0 | 0.0 | 0.00 | 0.00 | 0.00 | 79 | 1015.4 |
| 20260831133056 | 10 | 108 | 0.0 | 1.6 | 0.00 | 0.00 | 0.00 | 78 | 1015.3 |
| 20260831131559 | 9 | 109 | 0.0 | 1.6 | 0.00 | 0.00 | 0.00 | 78 | 1015.3 |
| 20260831130054 | 9 | 109 | 0.0 | 3.2 | 0.00 | 0.00 | 0.00 | 78 | 1015.2 |
| 20260831124553 | 10 | 88 | 0.0 | 3.2 | 0.00 | 0.00 | 0.00 | 78 | 1015.2 |
| 20260831123049 | 10 | 113 | 0.0 | 1.6 | 0.00 | 0.00 | 0.00 | 77 | 1015.1 |
| 20260831121549 | 11 | 113 | 0.0 | 1.6 | 0.00 | 0.00 | 0.00 | 77 | 1015.1 |